Location: Gesvres
(49.0440°N, 2.8518°E)
Time: 12:01:36
(UTC+00:00)

Cosmos 1536 Rocket - Visible Passes

Search period start: 28 September 2023 00:00
Search period end: 08 October 2023 00:00
Orbit: 604 x 630 km, 82.5° (Epoch: 27 September)

Date Brightness Start Highest point End Pass type
(mag) Time Alt. Az. Time Alt. Az. Time Alt. Az.
28 Sep 6.5 21:08:16 10° NNE 21:08:18 10° NNE 21:08:18 10° NNE visible
29 Sep 6.5 21:24:32 10° N 21:24:47 11° N 21:24:47 11° N visible
30 Sep 6.6 21:40:59 10° N 21:41:15 12° N 21:41:15 12° N visible
01 Oct 6.7 21:57:37 10° NNW 21:57:44 11° NNW 21:57:44 11° NNW visible
02 Oct 6.3 20:36:59 10° NNE 20:37:08 11° NNE 20:37:08 11° NNE visible
03 Oct 6.3 20:53:14 10° N 20:53:38 12° N 20:53:38 12° N visible
04 Oct 6.4 21:09:41 10° N 21:10:08 13° N 21:10:08 13° N visible
05 Oct 6.6 21:26:18 10° NNW 21:26:38 12° NNW 21:26:38 12° NNW visible
06 Oct 6.1 20:05:41 10° NNE 20:06:04 12° NNE 20:06:04 12° NNE visible
06 Oct 6.8 21:43:06 10° NNW 21:43:09 10° NNW 21:43:09 10° NNW visible
07 Oct 6.1 20:21:55 10° N 20:22:35 14° N 20:22:35 14° N visible
